| time (UTC) | temp C | wind direction | speed KPH | gust KPH | rain 1hr cm | rain 24hr cm | rain mn cm | humidity % | barometer mb |
| 20260505200043 | 23 | 30 | 1.6 | 9.7 | 0.00 | 0.00 | 0.00 | 31 | 1008.4 |
| 20260505194544 | 23 | 285 | 6.4 | 11.3 | 0.00 | 0.00 | 0.00 | 31 | 1008.5 |
| 20260505193044 | 23 | 295 | 8.0 | 14.5 | 0.00 | 0.00 | 0.00 | 31 | 1008.6 |
| 20260505191550 | 23 | 45 | 4.8 | 16.1 | 0.00 | 0.00 | 0.00 | 32 | 1008.7 |
| 20260505190038 | 23 | 280 | 4.8 | 11.3 | 0.00 | 0.00 | 0.00 | 30 | 1008.9 |
| 20260505184532 | 22 | 231 | 3.2 | 6.4 | 0.00 | 0.00 | 0.00 | 29 | 1008.9 |
| 20260505183030 | 22 | 272 | 1.6 | 8.0 | 0.00 | 0.00 | 0.00 | 30 | 1009.0 |
| 20260505181527 | 21 | 274 | 3.2 | 6.4 | 0.00 | 0.00 | 0.00 | 35 | 1009.0 |
| 20260505180037 | 20 | 264 | 1.6 | 8.0 | 0.00 | 0.00 | 0.00 | 39 | 1009.1 |
| 20260505174620 | 19 | 47 | 1.6 | 6.4 | 0.00 | 0.00 | 0.00 | 48 | 1009.1 |
| 20260505173016 | 18 | 328 | 0.0 | 6.4 | 0.00 | 0.00 | 0.00 | 54 | 1009.3 |
| 20260505171515 | 17 | 288 | 1.6 | 4.8 | 0.00 | 0.00 | 0.00 | 56 | 1009.4 |
| 20260505170022 | 16 | 278 | 0.0 | 6.4 | 0.00 | 0.00 | 0.00 | 57 | 1009.5 |
| 20260505164507 | 16 | 306 | 1.6 | 6.4 | 0.00 | 0.00 | 0.00 | 58 | 1009.6 |
| 20260505163005 | 14 | 264 | 1.6 | 4.8 | 0.00 | 0.00 | 0.00 | 63 | 1009.7 |
| 20260505161502 | 13 | 288 | 0.0 | 4.8 | 0.00 | 0.00 | 0.00 | 64 | 1009.8 |
| 20260505153058 | 11 | 298 | 1.6 | 6.4 | 0.00 | 0.00 | 0.00 | 70 | 1010.2 |
| 20260505151553 | 11 | 59 | 0.0 | 3.2 | 0.00 | 0.00 | 0.00 | 70 | 1010.2 |
| 20260505124535 | 3 | 104 | 0.0 | 1.6 | 0.00 | 0.00 | 0.00 | 92 | 1009.5 |
| 20260505123051 | 3 | 103 | 0.0 | 1.6 | 0.00 | 0.00 | 0.00 | 90 | 1009.3 |
| 20260505121530 | 3 | 78 | 0.0 | 0.0 | 0.00 | 0.00 | 0.00 | 90 | 1009.1 |
| 20260505120030 | 3 | 78 | 0.0 | 1.6 | 0.00 | 0.00 | 0.00 | 89 | 1009.0 |
| 20260505114525 | 3 | 212 | 0.0 | 1.6 | 0.00 | 0.00 | 0.00 | 89 | 1008.8 |
| 20260505111531 | 3 | 167 | 0.0 | 0.0 | 0.00 | 0.00 | 0.00 | 89 | 1008.8 |
| 20260505101510 | 5 | 110 | 0.0 | 1.6 | 0.00 | 0.00 | 0.00 | 88 | 1008.3 |
| 20260505100009 | 5 | 135 | 0.0 | 1.6 | 0.00 | 0.00 | 0.00 | 86 | 1008.3 |
| 20260505094507 | 5 | 146 | 0.0 | 1.6 | 0.00 | 0.00 | 0.00 | 86 | 1008.1 |
| 20260505093003 | 6 | 146 | 0.0 | 1.6 | 0.00 | 0.00 | 0.00 | 85 | 1008.0 |
| 20260505091601 | 6 | 130 | 0.0 | 1.6 | 0.00 | 0.00 | 0.00 | 86 | 1008.0 |
| 20260505090100 | 6 | 117 | 0.0 | 3.2 | 0.00 | 0.00 | 0.00 | 85 | 1007.8 |
| 20260505084555 | 6 | 80 | 0.0 | 1.6 | 0.00 | 0.00 | 0.00 | 84 | 1007.8 |
| 20260505083102 | 6 | 82 | 0.0 | 1.6 | 0.00 | 0.00 | 0.00 | 83 | 1007.6 |
| 20260505081555 | 7 | 103 | 0.0 | 1.6 | 0.00 | 0.00 | 0.00 | 82 | 1007.7 |
| 20260505080052 | 7 | 120 | 0.0 | 1.6 | 0.00 | 0.00 | 0.00 | 82 | 1007.7 |
| 20260505074548 | 7 | 139 | 0.0 | 4.8 | 0.00 | 0.00 | 0.00 | 81 | 1007.7 |
| 20260505073043 | 8 | 100 | 3.2 | 6.4 | 0.00 | 0.00 | 0.00 | 79 | 1007.5 |
| 20260505071542 | 8 | 214 | 0.0 | 8.0 | 0.00 | 0.00 | 0.00 | 79 | 1007.2 |
| 20260505070045 | 8 | 108 | 1.6 | 8.0 | 0.00 | 0.00 | 0.00 | 77 | 1007.3 |
| 20260505064552 | 9 | 205 | 0.0 | 3.2 | 0.00 | 0.00 | 0.00 | 76 | 1007.0 |
| 20260505063038 | 10 | 341 | 4.8 | 6.4 | 0.00 | 0.00 | 0.00 | 75 | 1007.1 |
| 20260505061541 | 10 | 150 | 0.0 | 1.6 | 0.00 | 0.00 | 0.00 | 73 | 1006.9 |
| 20260505060034 | 10 | 188 | 0.0 | 3.2 | 0.00 | 0.00 | 0.00 | 72 | 1006.9 |
| 20260505054534 | 10 | 326 | 1.6 | 3.2 | 0.00 | 0.00 | 0.00 | 71 | 1006.6 |
| 20260505053032 | 11 | 139 | 0.0 | 3.2 | 0.00 | 0.00 | 0.00 | 67 | 1006.6 |
| 20260505041534 | 15 | 126 | 0.0 | 4.8 | 0.00 | 0.00 | 0.00 | 54 | 1006.3 |
| 20260505040030 | 16 | 132 | 3.2 | 4.8 | 0.00 | 0.00 | 0.00 | 51 | 1006.2 |
| 20260505034533 | 17 | 279 | 0.0 | 3.2 | 0.00 | 0.00 | 0.00 | 49 | 1005.9 |
| 20260505033031 | 18 | 280 | 3.2 | 6.4 | 0.00 | 0.00 | 0.00 | 42 | 1005.7 |
| 20260505031528 | 18 | 266 | 1.6 | 4.8 | 0.00 | 0.00 | 0.00 | 41 | 1005.4 |
| 20260505030027 | 19 | 273 | 1.6 | 8.0 | 0.00 | 0.00 | 0.00 | 38 | 1005.2 |
| 20260505024538 | 21 | 348 | 3.2 | 12.9 | 0.00 | 0.00 | 0.00 | 34 | 1004.9 |
| 20260505023026 | 21 | 12 | 9.7 | 22.5 | 0.00 | 0.00 | 0.00 | 32 | 1004.8 |
| 20260505021525 | 22 | 14 | 9.7 | 27.4 | 0.00 | 0.00 | 0.00 | 30 | 1004.7 |
| 20260505020025 | 22 | 42 | 9.7 | 19.3 | 0.00 | 0.00 | 0.00 | 31 | 1004.5 |
| 20260505014527 | 23 | 41 | 11.3 | 22.5 | 0.00 | 0.00 | 0.00 | 29 | 1004.4 |
| 20260505013024 | 24 | 308 | 3.2 | 17.7 | 0.00 | 0.00 | 0.00 | 26 | 1004.3 |
| 20260505011522 | 24 | 340 | 9.7 | 25.7 | 0.00 | 0.00 | 0.00 | 26 | 1004.4 |
| 20260505010021 | 24 | 314 | 14.5 | 30.6 | 0.00 | 0.00 | 0.00 | 25 | 1004.3 |
| 20260505004522 | 25 | 27 | 12.9 | 19.3 | 0.00 | 0.00 | 0.00 | 25 | 1004.3 |
| 20260505003021 | 25 | 311 | 9.7 | 19.3 | 0.00 | 0.00 | 0.00 | 24 | 1004.2 |
| 20260505001520 | 25 | 302 | 6.4 | 16.1 | 0.00 | 0.00 | 0.00 | 22 | 1004.2 |
| 20260505000028 | 25 | 301 | 11.3 | 25.7 | 0.00 | 0.00 | 0.00 | 22 | 1004.1 |
| 20260504234520 | 25 | 337 | 11.3 | 22.5 | 0.00 | 0.00 | 0.00 | 22 | 1004.0 |
| 20260504233022 | 25 | 326 | 9.7 | 27.4 | 0.00 | 0.00 | 0.00 | 21 | 1004.1 |
| 20260504231525 | 26 | 280 | 8.0 | 19.3 | 0.00 | 0.00 | 0.00 | 20 | 1004.1 |
| 20260504230016 | 26 | 310 | 8.0 | 19.3 | 0.00 | 0.00 | 0.00 | 21 | 1004.1 |
| 20260504224514 | 25 | 283 | 8.0 | 22.5 | 0.00 | 0.00 | 0.00 | 22 | 1004.3 |
| 20260504223010 | 26 | 335 | 9.7 | 20.9 | 0.00 | 0.00 | 0.00 | 22 | 1004.3 |
| 20260504221508 | 25 | 322 | 4.8 | 22.5 | 0.00 | 0.00 | 0.00 | 24 | 1004.4 |
| 20260504214505 | 25 | 66 | 8.0 | 22.5 | 0.00 | 0.00 | 0.00 | 24 | 1004.7 |
| 20260504213007 | 26 | 293 | 8.0 | 17.7 | 0.00 | 0.00 | 0.00 | 28 | 1004.7 |
| 20260504211500 | 25 | 276 | 9.7 | 20.9 | 0.00 | 0.00 | 0.00 | 29 | 1004.8 |
| 20260504210110 | 25 | 280 | 12.9 | 19.3 | 0.00 | 0.00 | 0.00 | 28 | 1004.8 |
| 20260504204603 | 25 | 276 | 6.4 | 16.1 | 0.00 | 0.00 | 0.00 | 27 | 1005.0 |
| 20260504203054 | 25 | 275 | 8.0 | 19.3 | 0.00 | 0.00 | 0.00 | 29 | 1005.1 |
| 20260504201552 | 25 | 269 | 4.8 | 14.5 | 0.00 | 0.00 | 0.00 | 30 | 1005.3 |